Terug naar catalogus

CZ-6A DEB

ActiefPO
NORAD 61409·DEBRIS·🇨🇳 China

Gelanceerd Aug 6, 2024 vanaf Taiyuan Satellite Launch Center

Loading…

Volgende Passages (komende 24 uur)

TLE

VersSource: Space-Track

Epoch: Sep 14, 2026, 10:38 UTC

1 61409U 24140YA  26257.44364370  .00006707  00000-0  72698-3 0  9999
2 61409  89.0245 259.5941 0089674 215.3309 144.1955 14.85135901108221

Volg CZ-6A DEB in realtime met AllMySat

Download on the App Store